TimeCEST,TemperatureF,Dew PointF,Humidity,Sea Level PressureIn,VisibilityMPH,Wind Direction,Wind SpeedMPH,Gust SpeedMPH,PrecipitationIn,Events,Conditions,WindDirDegrees,DateUTC
6:55 AM,55.4,51.8,88,30.06,-9999.0,West,5.8,-,N/A,,Clear,280,2012-10-05 04:55:00
7:55 AM,55.4,51.8,88,30.06,-9999.0,WNW,5.8,-,N/A,,Clear,290,2012-10-05 05:55:00
8:00 AM,55,51,83,30.09,9,WNW,5.8,,,,Scattered Clouds,290,2012-10-05 06:00:00
8:55 AM,60.8,57.2,88,30.09,6.2,West,2.3,-,N/A,,Partly Cloudy,280,2012-10-05 06:55:00
9:55 AM,68.0,59.0,73,30.09,6.2,WNW,3.5,-,N/A,,Partly Cloudy,290,2012-10-05 07:55:00
10:55 AM,73.4,59.0,61,30.09,6.2,West,5.8,-,N/A,,Partly Cloudy,280,2012-10-05 08:55:00
11:00 AM,73,59,52,30.12,9,West,5.8,,,,Scattered Clouds,280,2012-10-05 09:00:00
11:55 AM,77.0,55.4,47,30.09,6.2,WNW,4.6,-,N/A,,Partly Cloudy,300,2012-10-05 09:55:00
12:55 PM,78.8,53.6,42,30.09,6.2,SW,3.5,-,N/A,,Partly Cloudy,230,2012-10-05 10:55:00
1:55 PM,80.6,53.6,39,30.09,6.2,WSW,5.8,-,N/A,,Partly Cloudy,240,2012-10-05 11:55:00
2:00 PM,81,53,27,30.10,12,WSW,5.8,,,,Scattered Clouds,240,2012-10-05 12:00:00
2:55 PM,82.4,53.6,37,30.06,6.2,West,10.4,-,N/A,,Partly Cloudy,270,2012-10-05 12:55:00
3:55 PM,82.4,51.8,35,30.09,6.2,West,9.2,-,N/A,,Partly Cloudy,280,2012-10-05 13:55:00
4:55 PM,80.6,50.0,34,30.06,-9999.0,East,8.1,-,N/A,,Clear,90,2012-10-05 14:55:00
5:00 PM,81,50,23,30.07,12,East,8.1,,,,Scattered Clouds,90,2012-10-05 15:00:00
5:55 PM,75.2,59.0,57,30.06,-9999.0,East,8.1,-,N/A,,Clear,90,2012-10-05 15:55:00
6:55 PM,71.6,66.2,83,30.09,-9999.0,ESE,5.8,-,N/A,,Clear,110,2012-10-05 16:55:00
7:55 PM,69.8,66.2,88,30.09,-9999.0,South,3.5,-,N/A,,Clear,170,2012-10-05 17:55:00
8:00 PM,69,66,89,30.10,7,South,3.5,,,,Partly Cloudy,170,2012-10-05 18:00:00
8:55 PM,68.0,66.2,94,30.12,-9999.0,SW,5.8,-,N/A,,Clear,220,2012-10-05 18:55:00
9:55 PM,66.2,64.4,94,30.12,-9999.0,SW,6.9,-,N/A,,Clear,220,2012-10-05 19:55:00